CAPE
0 0 0 0 0 0 0 0 0 0 0 0 0 0 0 0 0 0 0 0 0 0 0 0 0 0 0 0 0 0 0 0 0 0 13 2 0 1 0 9 1 0 0 0
0 0 0 0 0 0 0 0 0 0 0 0 0 0 0 0 0 0 0 0 0 0 0 0 0 0 0 0 0 0 0 0 0 0 4 0 0 1 1 2 1 0 0 0
0 0 0 0 0 0 0 0 0 0 0 0 0 0 0 0 0 0 0 0 0 0 0 0 0 0 0 0 0 0 0 0 0 0 1 36 1 6 2 2 3 0 0 0
0 0 0 0 0 0 0 0 0 0 0 0 0 0 0 0 0 0 0 0 0 0 0 0 0 0 0 0 0 0 0 0 0 0 1 48 4 3 2 2 5 0 0 0
0 0 0 0 0 0 0 0 0 0 0 0 0 0 0 0 0 0 0 0 0 0 0 0 0 0 0 0 0 0 0 0 0 0 0 6 10 5 1 1 2 0 0 0
0 0 0 0 0 0 0 0 0 0 0 0 0 0 0 0 0 0 0 0 0 0 0 0 0 0 0 0 0 0 0 0 0 0 0 0 3 14 6 3 2 0 0 0
0 0 0 0 0 0 0 0 0 0 0 0 0 0 0 0 0 0 0 0 0 0 0 0 0 0 0 0 0 0 0 0 0 0 0 0 2 5 1 2 2 0 0 0
0 0 0 0 0 0 0 0 0 0 0 0 0 0 0 0 0 0 0 0 0 0 0 0 0 0 0 0 0 0 0 0 0 0 0 0 10 27 0 1 1 1 0 0
0 0 0 0 0 0 0 0 0 0 0 0 0 0 0 0 0 0 0 0 0 0 0 0 1 0 0 0 0 0 0 0 0 0 0 0 1 5 3 1 1 0 0 0
0 0 0 0 0 0 0 0 0 0 0 0 0 0 0 0 0 0 0 0 0 0 0 2 2 5 2 2 0 0 0 0 0 0 0 0 1 9 0 0 0 0 0 0
0 0 0 0 0 0 0 0 0 0 0 0 0 0 0 0 0 0 0 0 0 0 4 3 4 4 5 1 3 0 0 0 0 0 0 6 1 30 8 1 0 0 0 0
0 0 0 0 0 0 0 0 0 0 0 0 0 0 0 0 0 0 0 0 0 0 4 6 5 5 3 1 0 0 0 0 0 0 0 6 12 33 0 11 0 0 0 0
0 0 0 0 0 0 0 0 0 0 0 0 0 0 0 0 0 0 0 0 0 0 0 1 3 4 2 0 0 0 0 0 0 0 0 72 65 44 0 0 0 0 0 0
0 0 0 0 0 0 0 0 0 0 0 0 0 0 0 0 0 0 0 0 0 0 0 1 3 5 2 1 0 0 0 0 0 0 103 99 42 14 0 0 0 0 0 0
0 0 0 0 0 0 0 0 0 0 0 0 0 0 0 0 0 0 0 0 0 0 0 0 1 2 1 1 0 0 0 36 34 85 116 30 1 0 0 0 0 0 0 0
0 0 0 0 0 0 0 0 0 0 0 0 0 0 0 0 0 0 0 0 0 0 0 0 1 2 2 1 1 0 32 83 41 87 90 25 0 1 0 0 1 0 0 0
0 0 0 0 0 0 0 0 0 0 0 0 0 0 0 0 0 0 0 0 0 0 0 0 0 2 3 2 0 0 110 152 138 57 36 19 0 0 1 0 1 1 1 0
0 0 0 0 0 0 0 0 0 0 0 0 0 0 0 0 0 0 0 0 0 0 0 0 0 0 2 2 1 1 256 185 134 68 23 7 7 0 0 1 0 1 0 0
0 0 0 0 0 0 0 0 0 0 0 0 0 0 0 0 0 0 0 0 0 0 0 0 0 2 7 5 1 0 179 103 25 11 1 0 0 0 0 0 0 0 0 0
0 0 0 0 0 0 0 0 0 0 0 0 0 0 0 0 0 0 0 0 0 0 0 0 0 5 7 4 0 283 108 5 5 0 0 0 0 1 1 0 0 0 0 0
0 0 0 0 0 0 0 0 0 0 0 0 0 0 0 0 0 0 0 0 0 0 0 0 0 3 2 4 170 162 38 0 1 0 0 0 0 0 0 0 0 0 0 0
0 0 0 0 0 0 0 0 0 0 0 0 0 0 0 0 0 0 0 0 0 0 0 0 0 5 3 2 0 0 0 0 0 0 0 0 0 0 0 0 0 0 0 0
0 0 0 0 0 0 0 0 0 0 0 0 0 0 0 0 0 0 0 0 0 0 0 0 3 0 9 0 0 0 0 0 0 0 0 0 0 0 0 0 0 0 0 0
0 0 0 0 0 0 0 0 0 0 0 0 0 0 0 0 0 0 0 0 0 0 0 0 0 0 0 0 0 0 0 0 0 0 0 0 0 0 0 0 0 0 0 0
0 0 0 0 0 0 0 0 0 0 0 0 0 0 0 0 0 0 0 0 0 0 0 0 0 0 0 0 0 0 0 0 0 0 0 0 0 0 0 0 0 0 0 0
0 0 0 0 0 0 0 0 0 0 0 0 0 0 0 0 0 0 0 0 0 0 0 0 0 0 0 0 0 0 0 0 0 0 0 0 0 0 0 0 0 0 0 0
CIN
0 0 0 0 0 0 0 0 0 0 0 0 0 0 0 0 0 0 0 0 0 0 0 0 0 0 0 0 0 0 0 0 0 0 0 -15 0 -1 -1 -45 0 -1 0 0
0 0 0 0 0 0 0 0 0 0 0 0 0 0 0 0 0 0 0 0 0 0 0 0 0 0 0 0 0 0 0 0 0 0 0 0 0 -1 -1 -28 -1 0 0 0
0 0 0 0 0 0 0 0 0 0 0 0 0 0 0 0 0 0 0 0 0 0 0 0 0 0 0 0 0 0 0 0 0 0 0 -4 -8 -83 -1 -1 -1 0 0 0
0 0 0 0 0 0 0 0 0 0 0 0 0 0 0 0 0 0 0 0 0 0 0 0 0 0 0 0 0 0 0 0 0 0 0 0 -31 -1 -1 -1 -1 0 0 0
0 0 0 0 0 0 0 0 0 0 0 0 0 0 0 0 0 0 0 0 0 0 0 0 0 0 0 0 0 0 0 0 0 0 0 0 -7 -16 -2 -1 0 0 0 0
0 0 0 0 0 0 0 0 0 0 0 0 0 0 0 0 0 0 0 0 0 0 0 0 0 0 0 0 0 0 0 0 0 0 0 0 0 -14 -11 -5 0 -1 0 0
0 0 0 0 0 0 0 0 0 0 0 0 0 0 0 0 0 0 0 0 0 0 0 0 0 0 0 0 0 0 0 0 0 0 0 0 0 -3 -1 -1 -1 -1 0 0
0 0 0 0 0 0 0 0 0 0 0 0 0 0 0 0 0 0 0 0 0 0 0 0 0 0 0 0 0 0 0 0 0 0 0 0 0 -2 -4 -12 -3 -1 0 0
0 0 0 0 0 0 0 0 0 0 0 0 0 0 0 0 0 0 0 0 0 0 0 0 0 0 0 0 0 0 0 0 0 0 0 0 0 -2 -13 -1 -1 0 0 0
0 0 0 0 0 0 0 0 0 0 0 0 0 0 0 0 0 0 0 0 0 0 0 0 0 0 0 -2 -1 0 0 0 0 0 0 0 0 0 -3 -1 -1 0 0 0
0 0 0 0 0 0 0 0 0 0 0 0 -1 0 0 0 0 0 0 0 0 -1 0 0 0 0 0 0 -1 0 0 0 0 0 0 -12 -3 -3 -10 -3 -1 -1 0 0
0 0 0 0 0 0 0 0 0 0 0 0 0 0 0 0 0 0 0 0 0 -1 0 0 0 0 0 0 0 0 0 0 0 0 0 -1 -16 0 -12 -18 0 -1 0 0
0 0 0 0 0 0 0 0 0 0 0 0 0 0 0 0 0 0 0 0 0 0 -1 0 0 0 0 0 0 0 0 0 0 0 0 -1 0 -11 0 0 0 0 0 0
0 0 0 0 0 0 0 0 0 0 0 0 0 0 0 0 0 0 0 0 0 0 0 -1 0 0 0 0 0 0 0 0 0 -2 -9 -1 -8 -39 -18 0 0 0 0 0
0 0 0 0 0 0 0 0 0 0 0 0 0 0 0 0 0 0 0 0 0 0 0 0 0 0 0 0 0 0 0 -79 -80 -41 -8 -20 -25 0 0 0 0 0 0 0
0 0 0 0 0 0 0 0 0 0 0 0 0 0 0 0 0 0 0 0 0 0 0 0 0 0 0 0 0 0 -71 -74 -59 -51 -19 -34 0 0 0 0 0 0 0 0
0 0 0 0 0 0 0 0 0 0 0 0 0 0 0 0 0 0 0 0 0 0 0 0 0 0 0 0 0 0 -32 -61 -66 -57 -47 -67 0 -23 0 0 0 0 0 0
0 0 0 0 0 0 0 0 0 0 0 0 0 0 0 0 0 0 0 0 0 0 0 0 0 0 0 0 0 0 -36 -52 -49 -59 -81 -100 -86 0 0 0 0 0 0 0
0 0 0 0 0 0 0 0 0 0 0 0 0 0 0 0 0 0 0 0 0 0 0 0 0 0 0 0 0 0 -44 -66 -93 -87 -15 0 0 0 0 0 0 0 0 0
0 0 0 0 0 0 0 0 0 0 0 0 0 0 0 0 0 0 0 0 0 0 0 0 0 0 0 0 0 -25 -48 -148 -124 0 0 0 0 0 0 0 0 0 0 0
0 0 0 0 0 0 0 0 0 0 0 0 0 0 0 0 0 0 0 0 0 0 0 0 0 0 0 0 -22 -40 -93 0 0 0 0 0 0 0 0 0 0 0 0 0
0 0 0 0 0 0 0 0 0 0 0 0 0 0 0 0 0 0 0 0 0 0 0 0 0 0 0 0 0 0 0 0 0 0 0 0 0 0 0 0 0 0 0 0
0 0 0 0 0 0 0 0 0 0 0 0 0 0 0 0 0 0 0 0 0 0 0 0 0 0 0 0 0 0 0 0 0 0 0 0 0 0 0 0 0 0 0 0
0 0 0 0 0 0 0 0 0 0 0 0 0 0 0 0 0 0 0 0 0 0 0 0 0 0 0 0 0 0 0 0 0 0 0 0 0 0 0 0 0 0 0 0
0 0 0 0 0 0 0 0 0 0 0 0 0 0 0 0 0 0 0 0 0 0 0 0 0 0 0 0 0 0 0 0 0 0 0 0 0 0 0 0 0 0 0 0
0 0 0 0 0 0 0 0 0 0 0 0 0 0 0 0 0 0 0 0 0 0 0 0 0 0 0 0 0 0 0 0 0 0 0 0 0 0 0 0 0 0 0 0
Wind_Speed
6 6 4 5 4 7 7 4 14 19 18 15 23 22 19 14 6 6 5 6 9 12 13 12 15 16 16 15 16 14 14 10 9 3 10 18 18 16 15 15 19 19 17 17
6 2 3 7 6 4 7 14 12 15 10 21 14 19 6 6 3 5 6 9 11 15 16 16 16 16 15 17 14 18 14 14 7 6 15 18 15 14 15 15 17 19 20 19
2 4 9 6 3 13 11 10 11 18 31 7 7 6 4 4 3 7 7 8 10 13 17 17 17 18 17 17 17 15 15 13 9 9 13 7 14 13 14 16 17 18 20 20
4 5 9 5 7 11 10 7 21 22 13 3 5 7 6 3 6 9 13 17 18 18 18 16 17 19 17 18 17 18 18 17 9 8 9 15 14 16 15 15 16 17 21 21
7 6 8 5 10 12 8 17 23 13 0 5 4 3 8 4 6 12 17 19 18 19 19 21 20 20 19 17 16 16 19 16 14 4 7 10 15 16 13 16 22 20 19 21
6 4 2 3 14 9 11 14 10 2 3 4 5 5 7 2 3 9 16 18 19 22 21 20 20 20 20 15 16 15 16 15 12 5 6 12 12 21 18 18 19 18 16 16
9 4 4 3 6 6 10 10 7 10 7 6 3 8 11 5 3 13 24 24 23 22 22 21 22 20 21 20 18 14 14 14 11 11 9 11 13 23 24 22 19 21 16 15
5 10 5 7 4 5 5 5 5 6 9 18 17 8 8 3 11 22 29 26 26 24 21 22 21 21 21 21 19 15 15 14 10 5 6 9 8 15 17 21 18 17 17 18
5 7 3 6 3 5 6 5 2 6 7 3 6 9 5 9 19 24 27 27 26 25 25 25 22 21 20 18 17 17 15 13 11 11 6 5 8 13 22 23 19 17 20 18
4 8 4 4 1 3 5 3 5 3 7 9 8 7 6 14 28 28 29 28 28 28 26 24 21 19 18 17 15 14 17 15 15 10 1 9 7 11 20 20 21 22 20 21
4 3 8 5 2 3 2 4 2 3 4 5 9 6 6 17 28 29 28 28 28 27 24 25 21 19 17 17 14 14 15 13 15 9 5 9 9 13 18 19 18 20 19 19
3 3 4 8 6 4 2 3 3 3 5 6 6 10 5 23 26 24 27 28 27 22 25 22 21 18 15 13 15 15 14 14 14 10 7 9 10 11 17 19 19 20 20 20
3 2 6 10 6 4 2 3 3 8 8 7 5 11 15 25 25 27 27 29 26 25 25 22 19 17 14 12 11 14 17 14 16 12 6 13 14 13 13 19 20 22 21 19
3 2 8 7 12 9 14 9 4 5 5 10 14 23 27 29 33 32 31 28 24 25 22 21 17 15 13 13 5 15 15 14 12 12 14 13 15 17 16 16 18 20 20 21
4 4 5 12 19 15 9 3 6 5 12 7 15 24 27 30 31 30 28 26 28 27 24 21 18 16 15 13 8 12 12 12 13 13 14 14 14 15 17 17 18 17 20 20
2 5 10 13 1 4 5 1 13 9 8 14 14 21 25 27 26 27 27 24 29 27 27 25 22 19 16 13 9 4 11 13 13 14 14 13 12 14 15 19 18 19 18 17
2 3 5 7 7 3 3 5 11 16 15 8 8 24 29 32 32 33 23 29 28 26 26 25 21 19 16 13 12 10 14 14 14 13 12 13 15 14 13 16 16 17 19 19
4 3 1 6 7 5 7 4 9 11 14 2 16 26 26 25 30 28 18 24 28 29 29 24 19 19 16 12 10 10 14 16 15 14 13 13 15 15 13 15 17 18 17 18
6 2 4 3 2 7 3 7 13 7 21 5 24 28 28 26 21 12 25 29 26 26 24 21 22 19 15 12 10 7 15 15 15 14 14 14 13 13 12 13 13 12 15 15
3 2 3 3 3 4 6 10 15 3 7 22 26 26 30 29 24 24 33 31 29 29 25 25 26 19 15 15 8 15 15 16 14 13 13 13 14 14 13 12 13 12 12 12
5 4 1 3 4 7 3 15 12 8 10 26 22 24 25 21 15 28 28 26 24 23 26 26 23 18 21 17 8 13 14 15 13 11 13 12 12 12 12 11 12 11 11 11
3 1 3 2 4 7 4 4 3 7 13 17 20 19 25 25 26 26 26 26 27 32 31 30 23 16 19 15 11 14 11 14 14 13 13 11 12 9 9 12 10 12 13 12
4 6 4 7 6 1 2 5 3 6 12 12 18 21 21 25 25 26 27 27 26 24 24 25 25 22 19 20 16 14 10 13 14 14 12 11 12 10 9 11 10 9 10 10
4 3 3 4 2 5 8 2 2 7 9 16 16 19 20 22 23 24 23 23 22 25 25 26 26 24 24 21 17 14 12 8 14 13 9 10 11 10 7 6 7 9 8 8
5 3 3 7 6 9 1 5 7 11 12 15 17 16 18 19 22 21 21 22 20 19 20 19 20 20 21 20 20 18 15 7 12 10 9 9 7 9 9 8 5 5 4 7
5 6 3 5 2 4 9 8 11 8 14 15 16 18 17 15 19 19 19 18 19 19 20 21 23 22 21 19 20 20 16 12 8 10 7 7 7 7 7 8 9 15 13 12
Wind_Direction
350 63 40 347 295 251 267 262 289 290 294 300 301 293 312 319 60 60 10 347 341 333 330 329 325 318 313 305 308 268 276 267 291 264 289 174 169 166 160 157 155 158 156 158
17 75 354 310 323 317 308 300 296 286 296 317 307 297 279 78 111 55 3 347 337 329 334 329 324 318 312 305 297 305 289 282 287 303 313 173 158 161 158 155 157 161 158 160
144 292 325 337 326 351 325 299 301 292 318 304 333 308 269 306 57 19 359 339 331 323 323 324 316 314 309 303 304 300 288 290 270 278 316 156 162 156 163 164 160 164 161 161
276 333 343 325 358 348 314 328 304 308 333 286 64 284 283 293 303 355 347 346 333 329 323 316 308 304 300 295 296 292 290 280 281 237 297 236 179 168 166 161 160 161 162 160
271 318 350 317 343 339 281 312 295 304 51 34 338 27 268 342 334 344 342 333 322 319 315 311 306 298 292 287 281 277 275 260 248 229 269 270 187 172 172 163 161 164 165 162
251 294 247 316 327 326 321 308 322 28 66 16 245 91 274 293 266 324 328 324 319 317 313 305 301 297 290 279 273 276 278 269 259 244 252 293 308 182 170 166 163 166 165 161
323 318 313 20 334 338 2 351 348 0 2 240 212 328 250 203 305 340 332 333 323 315 310 307 304 296 288 281 271 258 258 261 234 206 213 250 244 198 168 168 165 164 162 161
16 333 16 359 154 235 344 86 119 300 316 299 301 232 267 160 348 343 339 320 319 314 310 305 299 294 285 281 275 263 247 252 246 227 263 297 268 190 167 168 164 171 161 163
345 268 298 327 352 111 319 26 246 267 261 295 258 285 334 341 347 334 321 320 317 313 312 307 304 293 283 274 253 247 241 240 245 236 201 271 226 230 168 163 167 168 160 168
275 302 281 325 37 41 102 306 358 7 314 313 278 297 260 333 335 330 324 322 317 316 312 309 305 295 285 273 255 236 233 219 218 215 118 276 199 243 167 163 163 168 166 169
145 152 294 357 25 222 355 350 316 225 252 280 303 291 206 345 335 323 322 317 314 312 313 310 304 296 283 268 245 233 233 214 218 188 201 232 201 206 170 162 160 158 159 167
228 180 289 264 293 190 132 219 195 306 306 266 264 272 215 343 328 323 317 314 312 310 314 310 309 300 290 273 237 215 218 198 197 195 226 218 179 201 167 162 154 156 158 166
262 318 315 340 354 348 229 192 218 278 262 253 286 269 320 325 324 324 320 316 316 320 319 317 317 313 308 295 210 204 197 183 191 186 220 194 180 169 171 153 154 151 152 155
40 160 172 210 247 265 295 303 322 282 288 301 264 289 314 326 328 327 323 320 321 323 322 321 318 315 314 315 257 194 176 175 172 181 182 168 169 172 164 159 157 156 153 148
93 249 230 257 272 273 260 193 310 287 296 269 293 304 314 326 322 320 316 316 327 328 328 328 330 330 329 335 316 182 179 164 167 165 160 166 161 154 155 148 151 151 155 159
29 274 320 300 278 188 182 211 343 324 285 279 280 291 324 315 317 320 323 328 332 331 332 333 336 330 332 332 321 294 174 155 144 149 162 155 136 158 165 156 157 157 149 151
297 313 330 274 316 320 353 237 338 305 305 287 304 321 325 327 328 325 328 334 333 333 335 332 336 331 322 317 323 305 161 136 143 139 147 152 142 155 166 158 154 157 157 158
287 299 178 282 344 9 247 234 258 281 297 229 329 325 323 322 316 309 339 333 331 335 337 333 332 326 319 322 305 276 138 123 129 132 139 143 150 154 153 160 161 162 156 159
212 298 312 336 260 274 6 334 323 358 309 352 336 326 324 325 310 307 346 338 335 330 330 328 330 323 318 317 292 219 125 125 118 138 140 140 135 137 143 152 151 152 153 156
115 56 138 348 315 272 244 308 310 117 282 353 338 324 327 336 345 332 338 337 336 334 337 337 338 324 344 329 299 128 131 124 135 135 133 131 130 138 137 137 131 135 137 140
331 334 128 278 268 288 298 311 320 49 283 327 324 318 322 331 320 311 326 331 332 332 338 343 347 347 354 334 111 112 123 113 110 119 113 117 118 120 123 125 128 126 125 132
199 68 303 319 347 321 356 353 49 242 300 306 314 318 319 320 323 326 331 334 342 337 347 353 350 341 359 1 53 71 56 102 111 105 96 103 112 108 111 110 111 117 126 124
331 181 212 183 239 4 325 239 237 291 295 306 314 316 319 321 328 331 334 336 341 341 340 346 355 351 4 18 28 47 5 98 101 97 100 102 92 101 108 113 115 112 116 123
287 179 228 5 269 303 307 272 303 312 298 311 313 314 320 323 327 330 334 336 345 345 351 344 348 355 7 8 25 34 22 75 91 84 84 91 97 85 76 95 113 113 120 124
205 137 240 263 297 312 229 316 333 319 315 320 318 317 323 328 329 332 333 338 339 346 346 346 346 357 2 2 19 22 16 31 88 94 85 86 84 99 90 66 59 93 86 146
181 204 160 254 261 219 277 308 319 321 322 319 317 327 327 333 329 334 333 338 335 343 345 353 351 355 0 6 14 17 15 21 62 89 86 96 107 99 100 102 84 66 82 90